Location: Observatoires du Mont Megantic
(45.4500°N, 71.1500°W)
Time: 21:24:12
(UTC-05:00)

OTV 5 (USA 277) - Visible Passes

Search period start: 10 December 2017 00:00
Search period end: 20 December 2017 00:00
Orbit: 404 x 417 km, 43.0° (Epoch: 07 September)

Date Brightness Start Highest point End Pass type
(mag) Time Alt. Az. Time Alt. Az. Time Alt. Az.
10 Dec ? 17:33:39 10° W 17:36:57 53° S 17:38:24 29° ESE visible
10 Dec ? 19:11:08 10° W 19:11:09 10° W 19:11:09 10° W visible
11 Dec ? 16:42:37 10° W 16:45:56 56° S 16:49:14 10° ESE visible
11 Dec ? 18:19:56 10° W 18:22:39 31° SSW 18:22:39 31° SSW visible
12 Dec ? 17:28:49 10° W 17:32:00 39° SSW 17:34:15 17° SE visible
13 Dec ? 16:37:44 10° W 16:41:00 47° S 16:44:15 10° ESE visible
13 Dec ? 18:15:28 10° WSW 18:17:53 18° SSW 18:18:47 17° S visible
14 Dec ? 17:24:09 10° W 17:26:57 24° SSW 17:29:45 10° SSE visible
15 Dec ? 16:32:58 10° W 16:36:00 31° SSW 16:39:02 10° SE visible
16 Dec ? 17:20:07 10° WSW 17:21:47 13° SSW 17:23:28 10° S visible
